Location: Campolattaro
(41.2833°N, 14.7333°E)
Time: 16:32:54
(UTC+00:00)

Cosmos 2181 Rocket - Pass Details

Date: 19 May 2025
Orbit: 952 x 1013 km, 82.9° (Epoch: 17 June)

Event Time Altitude Azimuth Distance (km) Brightness Sun altitude
Exits shadow 20:58:42 34° 194° (SSW) 1,547 4.7 -22.8°
Maximum altitude 21:01:37 81° 278° (W) 1,003 4.0 -23.1°
Drops below altitude 10° 21:08:00 10° 5° (N) 2,773 7.1 -23.7°
Sets 21:10:33 0° 7° (N) 3,734 7.9 -23.9°
